Location: Deuil
(48.9767°N, 2.3272°E)
Time: 12:58:12
(UTC+00:00)

CZ-4 R/B - Pass Details

Date: 24 October 2021
Orbit: 530 x 595 km, 97.8° (Epoch: 05 December)

Event Time Altitude Azimuth Distance (km) Brightness Sun altitude
Exits shadow 19:37:15 - 204° (SSW) 2,714 5.0 -29.0°
Reaches altitude 10° 19:39:48 10° 223° (SW) 1,867 4.3 -29.4°
Maximum altitude 19:42:42 19° 269° (W) 1,402 4.0 -29.8°
Drops below altitude 10° 19:45:40 10° 315° (NW) 1,906 4.8 -30.3°
Sets 19:48:24 0° 333° (NNW) 2,823 5.5 -30.7°
